VE7EOZ-10 Weather Reports


time (UTC)temp
C
wind
direction
speed
KPH
gust
KPH
rain 1hr
cm
rain 24hr
cm
rain mn
cm
humidity
%
barometer
mb
20260506104054 6 61 0.0 1.6 0.00 0.00 0.00 76 1012.7
20260506103554 6 61 0.0 3.2 0.00 0.00 0.00 75 1012.6
20260506103058 6 61 0.0 3.2 0.00 0.00 0.00 75 1012.7
20260506102553 6 61 0.0 0.0 0.00 0.00 0.00 75 1012.6
20260506102051 7 61 0.0 0.0 0.00 0.00 0.00 75 1012.6
20260506101600 7 61 0.0 0.0 0.00 0.00 0.00 74 1012.5
20260506101051 7 61 0.0 0.0 0.00 0.00 0.00 75 1012.6
20260506100550 6 61 0.0 0.0 0.00 0.00 0.00 75 1012.5
20260506100109 6 61 0.0 1.6 0.00 0.00 0.00 75 1012.4
20260506095551 6 61 0.0 1.6 0.00 0.00 0.00 76 1012.4
20260506095052 6 61 0.0 1.6 0.00 0.00 0.00 76 1012.4
20260506084600 7 10 0.0 3.2 0.00 0.00 0.00 73 1011.8
20260506084040 7 10 0.0 4.8 0.00 0.00 0.00 73 1011.8
20260506083540 7 10 0.0 4.8 0.00 0.00 0.00 72 1011.8
20260506083040 7 10 1.6 4.8 0.00 0.00 0.00 72 1011.8
20260506082538 7 10 0.0 6.4 0.00 0.00 0.00 72 1011.7
20260506082036 7 336 0.0 1.6 0.00 0.00 0.00 71 1011.9
20260506081541 7 336 0.0 1.6 0.00 0.00 0.00 71 1011.8
20260506081034 8 336 0.0 0.0 0.00 0.00 0.00 70 1011.8
20260506080533 8 336 0.0 1.6 0.00 0.00 0.00 70 1011.7
20260506073527 8 336 0.0 3.2 0.00 0.00 0.00 68 1011.4
20260506073038 9 336 0.0 3.2 0.00 0.00 0.00 67 1011.4
20260506072524 9 336 0.0 3.2 0.00 0.00 0.00 67 1011.3
20260506072025 9 336 0.0 0.0 0.00 0.00 0.00 67 1011.4
20260506071524 9 336 0.0 0.0 0.00 0.00 0.00 67 1011.4
20260506071022 9 336 0.0 0.0 0.00 0.00 0.00 67 1011.3
20260506070524 9 336 0.0 3.2 0.00 0.00 0.00 67 1011.3
20260506062020 10 336 0.0 0.0 0.00 0.00 0.00 63 1010.7
20260506061520 11 336 0.0 0.0 0.00 0.00 0.00 61 1010.6
20260506061020 11 336 0.0 0.0 0.00 0.00 0.00 61 1010.6
20260506060519 11 336 0.0 0.0 0.00 0.00 0.00 61 1010.6
20260506051021 13 336 0.0 0.0 0.00 0.00 0.00 55 1010.6
20260506050517 13 336 0.0 0.0 0.00 0.00 0.00 53 1010.6
20260506045017 14 336 0.0 0.0 0.00 0.00 0.00 50 1010.5
20260506044547 14 336 0.0 0.0 0.00 0.00 0.00 50 1010.5
20260506044017 15 336 0.0 0.0 0.00 0.00 0.00 49 1010.5
20260506043517 15 336 0.0 0.0 0.00 0.00 0.00 47 1010.5
20260506043017 15 336 0.0 0.0 0.00 0.00 0.00 49 1010.4
20260506042517 15 336 0.0 0.0 0.00 0.00 0.00 49 1010.4
20260506042021 16 336 0.0 0.0 0.00 0.00 0.00 49 1010.4
20260506041517 16 336 0.0 0.0 0.00 0.00 0.00 46 1010.3
20260506041021 16 336 0.0 0.0 0.00 0.00 0.00 46 1010.3
20260506040515 16 336 0.0 0.0 0.00 0.00 0.00 45 1010.3
20260506040015 17 336 0.0 0.0 0.00 0.00 0.00 42 1010.4
20260506035515 17 336 0.0 0.0 0.00 0.00 0.00 42 1010.3
20260506035015 17 336 0.0 0.0 0.00 0.00 0.00 41 1010.2
20260506034537 17 336 0.0 0.0 0.00 0.00 0.00 39 1010.3
20260506034014 18 336 0.0 0.0 0.00 0.00 0.00 40 1010.3
20260506033515 18 336 0.0 0.0 0.00 0.00 0.00 39 1010.3
20260506033014 18 336 0.0 0.0 0.00 0.00 0.00 37 1010.3
20260506032514 19 336 0.0 0.0 0.00 0.00 0.00 37 1010.4
20260506032014 19 336 0.0 0.0 0.00 0.00 0.00 35 1010.4
20260506031515 20 336 0.0 0.0 0.00 0.00 0.00 35 1010.3
20260506031014 20 336 0.0 0.0 0.00 0.00 0.00 36 1010.3
20260506030513 20 336 0.0 0.0 0.00 0.00 0.00 33 1010.3
20260506030013 21 336 0.0 0.0 0.00 0.00 0.00 33 1010.3
20260506025513 21 336 0.0 0.0 0.00 0.00 0.00 31 1010.3
20260506025012 21 336 0.0 1.6 0.00 0.00 0.00 32 1010.3
20260506024512 21 336 0.0 1.6 0.00 0.00 0.00 29 1010.4
20260506024011 22 336 0.0 1.6 0.00 0.00 0.00 28 1010.4
20260506023512 22 336 0.0 1.6 0.00 0.00 0.00 29 1010.5
20260506023011 22 336 0.0 1.6 0.00 0.00 0.00 31 1010.5
20260506022510 22 336 0.0 1.6 0.00 0.00 0.00 28 1010.5
20260506022011 22 336 0.0 1.6 0.00 0.00 0.00 30 1010.5
20260506021510 23 336 0.0 1.6 0.00 0.00 0.00 29 1010.6
20260506021010 23 336 0.0 1.6 0.00 0.00 0.00 28 1010.6
20260506020509 23 336 0.0 3.2 0.00 0.00 0.00 24 1010.6
20260506020008 23 336 0.0 4.8 0.00 0.00 0.00 25 1010.6
20260506015508 23 336 3.2 4.8 0.00 0.00 0.00 25 1010.6
20260506015011 23 338 0.0 3.2 0.00 0.00 0.00 24 1010.7
20260506014506 23 338 0.0 3.2 0.00 0.00 0.00 24 1010.7
20260506014005 23 331 0.0 4.8 0.00 0.00 0.00 26 1010.7
20260506013505 23 331 0.0 6.4 0.00 0.00 0.00 24 1010.8
20260506013004 23 330 0.0 6.4 0.00 0.00 0.00 26 1010.9
20260506012504 23 13 0.0 3.2 0.00 0.00 0.00 26 1010.9
20260506012003 23 13 0.0 1.6 0.00 0.00 0.00 25 1010.9
20260506011503 23 9 0.0 4.8 0.00 0.00 0.00 26 1011.0
20260506011003 23 338 1.6 4.8 0.00 0.00 0.00 23 1011.1
20260506010600 23 336 0.0 6.4 0.00 0.00 0.00 23 1011.2
20260506010104 23 294 0.0 9.7 0.00 0.00 0.00 23 1011.2
20260506005600 23 311 4.8 9.7 0.00 0.00 0.00 23 1011.3
20260506005058 23 269 0.0 3.2 0.00 0.00 0.00 24 1011.3
20260506004626 24 269 0.0 3.2 0.00 0.00 0.00 24 1011.4
20260506004057 23 289 0.0 3.2 0.00 0.00 0.00 23 1011.4
20260506003557 24 289 0.0 3.2 0.00 0.00 0.00 24 1011.5
20260506003110 24 289 0.0 4.8 0.00 0.00 0.00 23 1011.7
20260506002555 24 360 0.0 6.4 0.00 0.00 0.00 22 1011.7
20260506002054 24 275 0.0 6.4 0.00 0.00 0.00 23 1011.8
20260506001557 24 327 1.6 8.0 0.00 0.00 0.00 23 1011.9
20260506001053 23 30 0.0 8.0 0.00 0.00 0.00 22 1011.9
20260506000552 23 338 0.0 6.4 0.00 0.00 0.00 24 1011.9
20260506000051 23 338 1.6 6.4 0.00 0.00 0.00 23 1012.1
20260505235550 23 338 0.0 3.2 0.00 0.00 0.00 23 1012.1
20260505235050 23 338 0.0 3.2 0.00 0.00 0.00 23 1012.2
20260505234614 23 338 0.0 6.4 0.00 0.00 0.00 23 1012.3
20260505234048 23 338 3.2 6.4 0.00 0.00 0.00 22 1012.3
20260505233547 23 338 3.2 8.0 0.00 0.00 0.00 21 1012.4
20260505233048 23 240 3.2 8.0 0.00 0.00 0.00 22 1012.5
20260505232546 23 308 0.0 6.4 0.00 0.00 0.00 22 1012.6
20260505232046 23 308 0.0 4.8 0.00 0.00 0.00 22 1012.7
20260505231545 23 308 0.0 4.8 0.00 0.00 0.00 21 1012.8
20260505231042 23 308 0.0 4.8 0.00 0.00 0.00 22 1012.9
20260505230542 23 250 0.0 8.0 0.00 0.00 0.00 23 1013.0
20260505230043 23 251 1.6 9.7 0.00 0.00 0.00 22 1013.0
20260505225541 23 258 3.2 11.3 0.00 0.00 0.00 21 1013.1
20260505225040 24 266 4.8 11.3 0.00 0.00 0.00 21 1013.2
20260505224541 24 332 1.6 6.4 0.00 0.00 0.00 22 1013.2
20260505224038 24 262 0.0 6.4 0.00 0.00 0.00 22 1013.3
20260505223538 24 262 0.0 8.0 0.00 0.00 0.00 22 1013.3
20260505223039 24 260 0.0 4.8 0.00 0.00 0.00 22 1013.4
20260505222538 23 260 0.0 4.8 0.00 0.00 0.00 22 1013.5
20260505222037 23 260 1.6 4.8 0.00 0.00 0.00 21 1013.5
20260505221537 24 213 0.0 3.2 0.00 0.00 0.00 22 1013.7
20260505221035 23 213 0.0 1.6 0.00 0.00 0.00 20 1013.8
20260505220534 24 213 0.0 4.8 0.00 0.00 0.00 21 1013.9
20260505220046 24 213 1.6 4.8 0.00 0.00 0.00 21 1013.9
20260505215534 24 215 0.0 8.0 0.00 0.00 0.00 22 1013.9
20260505215032 23 173 1.6 8.0 0.00 0.00 0.00 23 1014.1
20260505214537 23 125 0.0 4.8 0.00 0.00 0.00 23 1014.2
20260505214030 23 125 0.0 4.8 0.00 0.00 0.00 23 1014.2
20260505213528 23 194 0.0 4.8 0.00 0.00 0.00 24 1014.3
20260505213028 23 194 0.0 6.4 0.00 0.00 0.00 25 1014.4
20260505212527 23 194 1.6 6.4 0.00 0.00 0.00 24 1014.6
20260505212025 23 226 0.0 6.4 0.00 0.00 0.00 26 1014.6
20260505211524 22 305 0.0 11.3 0.00 0.00 0.00 26 1014.7
20260505211023 22 306 3.2 11.3 0.00 0.00 0.00 25 1014.7
20260505210522 22 289 1.6 8.0 0.00 0.00 0.00 24 1014.8
20260505210021 22 284 0.0 4.8 0.00 0.00 0.00 25 1014.8
20260505205523 22 284 0.0 6.4 0.00 0.00 0.00 26 1014.9
20260505205019 22 284 4.8 6.4 0.00 0.00 0.00 25 1014.9
20260505204519 22 265 0.0 8.0 0.00 0.00 0.00 25 1015.1
20260505204019 22 266 3.2 8.0 0.00 0.00 0.00 25 1015.1
20260505203518 21 255 1.6 8.0 0.00 0.00 0.00 26 1015.1
20260505203018 21 242 0.0 6.4 0.00 0.00 0.00 27 1015.2
20260505202519 21 314 0.0 9.7 0.00 0.00 0.00 27 1015.3
20260505202018 21 314 3.2 9.7 0.00 0.00 0.00 25 1015.3
20260505201522 21 343 3.2 9.7 0.00 0.00 0.00 27 1015.3
20260505201016 21 313 3.2 9.7 0.00 0.00 0.00 27 1015.4
20260505200515 22 250 1.6 4.8 0.00 0.00 0.00 27 1015.5
20260505200014 22 298 0.0 4.8 0.00 0.00 0.00 27 1015.6
20260505195513 21 348 1.6 8.0 0.00 0.00 0.00 28 1015.7
20260505195016 21 50 1.6 8.0 0.00 0.00 0.00 28 1015.8
20260505194527 21 235 1.6 8.0 0.00 0.00 0.00 28 1015.8
20260505194009 21 317 0.0 3.2 0.00 0.00 0.00 28 1015.9
20260505193507 20 321 0.0 3.2 0.00 0.00 0.00 30 1016.0
20260505193021 20 321 0.0 4.8 0.00 0.00 0.00 29 1016.1
20260505192507 20 321 0.0 6.4 0.00 0.00 0.00 30 1016.2
20260505192006 20 319 0.0 3.2 0.00 0.00 0.00 31 1016.2
20260505191502 19 319 0.0 3.2 0.00 0.00 0.00 31 1016.3
20260505191001 19 319 0.0 4.8 0.00 0.00 0.00 31 1016.5
20260505190501 19 319 0.0 6.4 0.00 0.00 0.00 32 1016.5
20260505190100 18 319 0.0 6.4 0.00 0.00 0.00 32 1016.6
20260505185559 18 317 0.0 6.4 0.00 0.00 0.00 33 1016.6
20260505185057 18 317 0.0 9.7 0.00 0.00 0.00 35 1016.7
20260505184602 18 317 0.0 9.7 0.00 0.00 0.00 34 1016.8
20260505184055 17 238 1.6 9.7 0.00 0.00 0.00 34 1016.8
20260505183554 17 326 3.2 9.7 0.00 0.00 0.00 35 1016.8
20260505183053 17 308 1.6 11.3 0.00 0.00 0.00 36 1016.8
20260505182552 17 294 0.0 11.3 0.00 0.00 0.00 37 1017.0
20260505182054 17 271 1.6 8.0 0.00 0.00 0.00 38 1017.0
20260505181551 16 223 1.6 11.3 0.00 0.00 0.00 37 1017.0
20260505181051 16 333 0.0 6.4 0.00 0.00 0.00 40 1017.0
20260505180548 16 334 3.2 6.4 0.00 0.00 0.00 40 1017.0
20260505180053 16 294 0.0 6.4 0.00 0.00 0.00 40 1017.1
20260505175544 16 253 1.6 6.4 0.00 0.00 0.00 43 1017.1
20260505175046 15 284 1.6 6.4 0.00 0.00 0.00 43 1017.1
20260505174600 15 313 0.0 6.4 0.00 0.00 0.00 43 1017.2
20260505174041 15 313 1.6 6.4 0.00 0.00 0.00 45 1017.3
20260505173539 15 316 1.6 6.4 0.00 0.00 0.00 45 1017.3
20260505173039 15 316 0.0 4.8 0.00 0.00 0.00 46 1017.3
20260505172540 14 316 1.6 8.0 0.00 0.00 0.00 46 1017.4
20260505172036 14 316 3.2 8.0 0.00 0.00 0.00 45 1017.5
20260505171536 13 316 3.2 6.4 0.00 0.00 0.00 47 1017.5
20260505171032 13 317 0.0 4.8 0.00 0.00 0.00 47 1017.5
20260505170531 13 317 1.6 6.4 0.00 0.00 0.00 49 1017.6
20260505170033 12 317 1.6 6.4 0.00 0.00 0.00 50 1017.7
20260505165531 12 318 0.0 4.8 0.00 0.00 0.00 51 1017.7
20260505165029 12 318 0.0 4.8 0.00 0.00 0.00 52 1017.7
20260505164526 12 317 1.6 6.4 0.00 0.00 0.00 52 1017.8
20260505164025 11 194 1.6 6.4 0.00 0.00 0.00 53 1017.8
20260505163524 11 331 0.0 4.8 0.00 0.00 0.00 55 1017.9
20260505163022 11 342 0.0 3.2 0.00 0.00 0.00 55 1017.9
20260505162520 10 342 0.0 4.8 0.00 0.00 0.00 55 1017.9
20260505162019 10 342 1.6 4.8 0.00 0.00 0.00 58 1018.0
20260505161518 10 64 1.6 4.8 0.00 0.00 0.00 59 1018.0
20260505161016 9 64 0.0 4.8 0.00 0.00 0.00 61 1018.0
20260505160515 8 65 0.0 1.6 0.00 0.00 0.00 64 1017.9
20260505153011 6 65 0.0 1.6 0.00 0.00 0.00 76 1018.1
20260505152511 5 65 0.0 1.6 0.00 0.00 0.00 77 1018.0
20260505152010 5 65 0.0 1.6 0.00 0.00 0.00 79 1018.1
20260505151510 5 65 0.0 1.6 0.00 0.00 0.00 80 1018.1
20260505151009 4 65 0.0 0.0 0.00 0.00 0.00 81 1018.0
20260505150509 3 65 0.0 0.0 0.00 0.00 0.00 83 1018.1
20260505140507 2 65 0.0 0.0 0.00 0.00 0.00 82 1018.0
20260505124556 3 65 0.0 0.0 0.00 0.00 0.00 77 1017.5
20260505124055 3 65 0.0 0.0 0.00 0.00 0.00 77 1017.6
20260505123553 3 65 0.0 0.0 0.00 0.00 0.00 77 1017.6
20260505123109 3 65 0.0 0.0 0.00 0.00 0.00 77 1017.6
20260505122552 3 65 0.0 0.0 0.00 0.00 0.00 77 1017.6
20260505122052 3 65 0.0 0.0 0.00 0.00 0.00 77 1017.6
20260505121551 3 65 0.0 0.0 0.00 0.00 0.00 76 1017.6
20260505121051 3 65 0.0 0.0 0.00 0.00 0.00 75 1017.6
20260505120550 3 65 0.0 0.0 0.00 0.00 0.00 75 1017.6
20260505120049 3 65 0.0 0.0 0.00 0.00 0.00 76 1017.6
20260505115547 3 65 0.0 0.0 0.00 0.00 0.00 75 1017.5
20260505115048 3 65 0.0 0.0 0.00 0.00 0.00 75 1017.5
20260505114609 4 65 0.0 0.0 0.00 0.00 0.00 74 1017.5
20260505114046 4 65 0.0 0.0 0.00 0.00 0.00 74 1017.5
20260505113548 4 65 0.0 0.0 0.00 0.00 0.00 73 1017.6
20260505113043 4 65 0.0 0.0 0.00 0.00 0.00 73 1017.6
20260505112542 5 65 0.0 0.0 0.00 0.00 0.00 74 1017.6
20260505112042 5 65 0.0 0.0 0.00 0.00 0.00 74 1017.5
20260505111556 5 65 0.0 0.0 0.00 0.00 0.00 74 1017.5
20260505111043 5 65 0.0 0.0 0.00 0.00 0.00 74 1017.5
20260505110541 5 65 0.0 0.0 0.00 0.00 0.00 73 1017.5